Location: Mahannah Oil Field
(37.4664°N, 96.6003°W)
Time: 15:39:06
(UTC+00:00)

Vanguard 2 Rocket - Pass Details

Date: 27 January 2021
Orbit: 554 x 3325 km, 32.9° (Epoch: 06 March)

Event Time Altitude Azimuth Distance (km) Brightness Sun altitude
Rises 23:19:39 0° 268° (W) 6,319 12.6 3.8°
Reaches altitude 10° 23:24:30 10° 267° (W) 4,886 12.1 3.0°
Maximum altitude 23:36:53 65° 189° (S) 1,574 8.4 0.7°
Drops below altitude 10° 23:43:42 10° 109° (ESE) 2,794 9.0 -0.5°
Sets 23:45:47 0° 106° (ESE) 3,512 9.4 -0.9°
